Showing default

QIANFAN-52, 62253

Orbit data source: Space-Track

QIANFAN-52, 62253 is a Chinese payload satellite in LEO that was launched on Thu, 05 Dec 2024 UTC via a CHANG ZHENG 6A launch vehicle from the Taiyaun Space Center, China (TSC). Payload-class satellites include a variety of spacecraft equipped with specific instruments for various scientific and technological missions. These include communications satellites like Starlink; space stations such as the ISS; scientific satellites like the Hubble; Earth observation satellites from companies like Planet Labs, Umbra, and HawkEye 360; GPS; miniature CubeSats for education and research; and military/defense satellites.

Loading next visibility...
Identifier
62253, 2024-232S
Orbit
LEO
Country
Flag of CNCN / PRC
Related business
Manufacturer
SECM
Mission
Operational Commercial Communications
Bus & Motor
QIANFAN, Unknown motor
Mass
267 kg wet, ~267 kg dry
Launch date (UTC)
2024-12-05 (1 year ago)
Launch vehicle
CHANG ZHENG 6A
Launch site
Taiyaun Space Center, China (TSC)
Object type
Payload
Rocket body
Debris
Shape & HBR
Box + 1 Pan, 5.0 m
Radar Cross Section
13.200 m², Large (>1 m²)

Expand to show TLE details & history
Last TLE update: 6 hours ago

TLE from 6 hours ago
0 QIANFAN-52
1 62253U 24232S   26035.12951093  .00000011  00000-0 -10724-5 0  9999
2 62253  89.0005  35.7147 0016682  43.5055 316.7409 13.50994657 75151
Epoch: 2026-02-04T03:06Z
TLE epoch observation values (Epoch: 2026-02-04T03:06:29.744Z)
Latitude
Longitude
-145.20975°
Altitude
1,062.515 km
Speed
7.325 km/s
True Right ascension
02h 22m 51s
True Declination
0° 00' 00"
Sunlit
Object was in daylight at epoch
Visualization orbit readout
Latitude
Unknown
Longitude
Unknown
Altitude
Unknown
Speed
Unknown
Apparent Right ascension
Unknown
Apparent Declination
Unknown
Sunlit
N/A
Visualization observer readout
Local Sidereal Time
10:40:59
Azimuth
Unknown
Elevation
Unknown
Doppler factor
Unknown
Orbital elements
Apogee altitude
1,078.07 km
Perigee altitude
1,053.235 km
Semi-major axis
7,443.789 km
Eccentricity
0.00167
Inclination
89.0005°
RAAN
35.7147°
Arg. of periapsis
43.5055°
True anomaly
316.6097°
Mean anomaly
316.7409°
Eccentric anomaly
316.67532°
Mean motion
3.3795 °/min
Orbital period
106.52 mins
BSTAR
-0.0000010724
Loading maneuver chart data...
Computing Atmospheric mass density...
Loading historical data...
Loading historical data...
Loading historical data...
Loading historical data...
Loading historical data...
Loading historical data...
Loading historical data...

Documentation

Showing up to 5 results
|